National Weather Service United States Department of Commerce

Moderating Temperatures for the East; Developing Storm for the Plains

Temperatures will continue to moderate across the east half of the nation through at least the first half of this week. A developing storm across the Southern Plains may bring some heavy rain from the Plains to the lower Great Lakes region, a wintry mixture and accumulating snow across the Midwest and Upper Mississippi Valley into mid-week. The west remains unsettled with occasional rain and snow. Read More >


Location Sky/Weather Temp.
(°F)
Dewpt.
(°F)
Humidity
(%)
Wind
(mph)
Pressure
(in)
Remarks
Washington National Partly Cloudy 48 31 51 NW12 29.95S
Dulles Intl. Partly Cloudy 44 30 57 W10 29.97R
BWI Airport Partly Cloudy 45 29 53 NW6 29.94R
Baltimore/Inner Harbor, MD Missing
47 29 49 MISG 29.95R
Charlottesville, VA Cloudy 48 29 47 NW5 29.97S
Fredericksburg, VA Clear 43 32 64 NW7 29.94S
Staunton, VA Cloudy 45 30 56 NW9 30.01S
Winchester, VA Mostly Cloudy 41 30 65 NW7 29.98S
Annapolis, MD Clear 46 32 58 NW8 29.94R
Hagerstown Airport, MD Cloudy 39 26 59 NW3 29.98R
Baltimore/Martin, MD Clear 37 32 81 NW7 29.96R WCI32
Martinsburg, WV Cloudy 46 31 55 NW9 29.98R
Patuxent River, MD Clear 45 35 68 W8 29.94R
Cumberland, MD Cloudy 44 31 61 NW6 30.06R
Oakland, MD Cloudy 36 32 87 NW9G17 29.98R WCI29
Hourly observations from: 600 AM EST MON FEB 06 2023
NZUS51 KLWX 061113
HRRLWX

HOURLY OBSERVATIONS AROUND THE LWX CWA
600 AM EST MON FEB 06 2023

Note: "FAIR" indicates few or no clouds below 12,000 feet
with no significant weather and/or obstructions to visibility.

 * =Non NWS site. Station does not report significant weather 
    and/or obstructions to visibility.

...DOWNTOWN AREAS...
  
CITY           SKY/WX    TMP DP  RH WIND       PRES   REMARKS
WASHINGTON NAT PTCLDY    48  31  51 NW12      29.95S                  
BALT INNER HAR   N/A     47  29  49 MISG      29.95R                  


...WASHINGTON SUBURBS...
  
CITY           SKY/WX    TMP DP  RH WIND       PRES   REMARKS
DULLES         PTCLDY    44  30  57 W10       29.97R                  
MANASSAS*      PTCLDY    48  32  53 NW10      29.98R                  
LEESBURG*      MOCLDY    46  34  61 NW13      29.99R                  
GAITHERSBURG*  CLEAR     44  30  57 NW12      29.96R                  
FT BELVOIR     CLEAR     47  30  50 NW12      29.93S                  
QUANTICO       CLEAR     45  32  60 NW10      29.97R                  
ANDREWS AFB    CLEAR     45  31  58 NW7       29.92R                  
COLLEGE PARK*  CLEAR     46  30  53 NW7       29.96R                  

...CENTRAL VIRGINIA...
  
CITY           SKY/WX    TMP DP  RH WIND       PRES   REMARKS
CULPEPER*      PTCLDY    45  28  52 N5        29.99S                  
CHARLOTTESVILL CLOUDY    48  29  47 NW5       29.97S                  
WARRENTON*     MOCLDY    48  29  47 NW8       29.98R                  
ORANGE*        MOCLDY    46  32  57 W5        29.98S                  
GORDONSVILLE*  PTCLDY    46  31  54 NW5       29.98R                  
STAFFORD*      CLEAR     47  34  59 NW8       29.96R                  
FREDERICKSBRG* CLEAR     43  32  64 NW7       29.94S                  
LOUISA*        MOCLDY    48  30  50 W9        29.97R                  
ASHLAND        CLEAR     39  34  82 NW5       29.96R                  
RICHMOND       CLEAR     42  35  76 NW9       29.95R                  

...NORTHEAST/CENTRAL MARYLAND...
  
CITY           SKY/WX    TMP DP  RH WIND       PRES   REMARKS
BWI AIRPORT    PTCLDY    45  29  53 NW6       29.94R                  
ANNAPOLIS      CLEAR     46  32  58 NW8       29.94R                  
MARTIN AIRPORT CLEAR     37  32  81 NW7       29.96R WCI  32          
ABERDEEN*      MOCLDY    28  28  99 E5        29.95  WCI  23          
WESTMINSTER*   CLEAR     43  28  56 NW6       29.96R                  
FORT MEADE*    CLEAR     36  28  75 CALM      29.98R                  

...SOUTHERN MARYLAND...
  
CITY           SKY/WX    TMP DP  RH WIND       PRES   REMARKS
PATUXENT RIVER CLEAR     45  35  68 W8        29.94R                  
ST MARYS CITY  CLEAR     42  35  76 CALM      29.94R                  
LEONARDTOWN*   CLEAR     39  34  81 W3        29.96R                  

...MARYLAND EASTERN SHORE...
  
CITY           SKY/WX    TMP DP  RH WIND       PRES   REMARKS
SALISBURY      FOG       40  40 100 CALM      29.93R VSB 1/4          
CAMBRIDGE*     CLEAR     32  32 100 CALM      29.95R                  
OCEAN CITY     CLEAR     43  43 100 NW7       29.92S                  
BAY BRIDGE AP* CLEAR     41  34  75 N3        29.95R                  
EASTON*        CLEAR     36  35  96 CALM      29.98R                  

...SHENANDOAH VALLEY...
  
CITY           SKY/WX    TMP DP  RH WIND       PRES   REMARKS
MARTINSBURG    CLOUDY    46  31  55 NW9       29.98R                  
HAGERSTOWN APT CLOUDY    39  26  59 NW3       29.98R                  
STAUNTON*      CLOUDY    45  30  56 NW9       30.01S                  
WINCHESTER*    MOCLDY    41  30  65 NW7       29.98S                  
FRONT ROYAL*   MOCLDY    45  32  61 NW5       29.99S                  
LURAY*         CLOUDY    45  30  57 N6        29.99R                  
NEW MARKET*    CLOUDY    38  29  71 CALM      30.00S                  
WAYNESBORO*    CLOUDY    44  30  57 NW6       29.99R                  

...APPALACHIANS...
  
CITY           SKY/WX    TMP DP  RH WIND       PRES   REMARKS
CUMBERLAND*    CLOUDY    44  31  61 NW6       30.06R                  
OAKLAND*       CLOUDY    36  32  87 NW9G17    29.98R WCI  29          
HOT SPRINGS*   CLOUDY    37  28  71 W16G28    29.96S WCI  28          
ELKINS         CLOUDY    42  31  64 W8        30.03R                  
BEDFORD PA*    CLOUDY    42  31  64 NW7       30.00R                  
JOHNSTOWN      CLOUDY    38  32  79 NW9       29.97R WCI  31          
ALTOONA        CLOUDY    42  32  67 NW8       29.99R                  

...SOUTHERN PENNSYLVANIA/DELAWARE...
  
CITY           SKY/WX    TMP DP  RH WIND       PRES   REMARKS
YORK           CLEAR     26  22  84 CALM      29.96R                  
WILMINGTON     PTCLDY    30  28  92 NW3       29.95R                  

...MARINE OBSERVATIONS...
  
STATION/POSITION TIME  TEMP    WIND        PRES
                       AIR SEA DIR/SP/G
                 (UTC) (F)     (DEG/KT/KT) (MB)
THOMAS PT LIGHT  1100   47     290/  9/ 11 1014.9R
TOLCHESTER       1024   41 38   10/  2/  2 1013.8
COVE POINT       1024   49     260/ 13/ 15 1013.8
GOOSES REEF      1048   40 40  320/  8/ 10 1015.5R
BALT HARBOR      1024   47 40  330/  2/  4 1013.3
BALT KEY BRIDGE  1024          300/  9/ 11 1013.7
ANNAPOLIS USNA   1024   47 44  290/ 10/ 12 1013.3
ANNAPOLIS CBIBS  1042   41 39  320/ 10/ 12 1013.8S
WASH DC CHANNEL  1024   44 39  330/  5/  8 1013.9
DAHLGREN         1024   43 42  340/  2/  4 1013.4
LEWISETTA        1024   42 40  330/  4/  5 1013.6
SOLOMONS ISLAND  1024   44 42  290/  4/  7 1012.4
PINEY POINT      1024          350/  8/  8   N/A
POTOMAC BUOY     1048   40 41  350/  4/  6   N/A
CAMBRIDGE PIER   1024   36 39     CALM     1013.7
BISHOPS HEAD     1024   37 39   90/  2/  2 1013.7
CHESAPEAKE CITY  1024   31 36   CALM  /  1 1014.0

  

 

For past hours' observations from around the NWS Sterling Area, please visit:
https://forecast.weather.gov/product.php?site=LWX&issuedby=LWX&product=RWR&format=CI&version=1